Location: Alfords
(31.4624°N, 83.9238°W)
Time: 13:38:49
(UTC+00:00)

Envisat - Pass Details

Date: 17 September 2021
Orbit: 764 x 766 km, 98.2° (Epoch: 23 October)

Event Time Altitude Azimuth Distance (km) Brightness Sun altitude
Rises 10:38:39 0° 12° (NNE) 3,234 6.5 -9.8°
Reaches altitude 10° 10:40:58 10° 13° (NNE) 2,304 5.8 -9.4°
Maximum altitude 10:46:03 85° 102° (ESE) 771 3.1 -8.3°
Drops below altitude 10° 10:51:07 10° 191° (SSW) 2,290 5.3 -7.2°
Sets 10:53:24 0° 192° (SSW) 3,212 6.0 -6.7°
